[TLELIST] Archives

 

[TLELIST] Current TLEs

April 3rd 2024 PST

HST 1 20580U 90037B 24093.80162594 .00005498 00000-0 26439-3 0 9990 2 20580 28.4679 129.7729 0002166 289.3021 70.7336 15.16584927665573 ISS (ZARYA) 1 25544U 98067A 24094.12084279 .00013440 00000-0 24412-3 0 9990 2 25544 51.6391 327.5718 0004623 30.7792 329.3467 15.49871182446906 CXO 1 25867U 99040B 24096.46753918 .00001153 00000-0 00000+0 0 9993 2 25867 39.5906 161.1729 8949988 291.0278 0.4027 0.37809786 25449 ...Continue Reading

[TLELIST] Current TLEs

April 2nd 2024 PST

HST 1 20580U 90037B 24092.55129959 .00006412 00000-0 31006-3 0 9992 2 20580 28.4674 138.1349 0002174 273.6627 86.3717 15.16572141665387 ISS (ZARYA) 1 25544U 98067A 24093.37664660 .00016628 00000-0 30019-3 0 9995 2 25544 51.6416 331.2550 0004616 29.4526 135.6926 15.49854010446787 CXO 1 25867U 99040B 24093.82349510 .00001213 00000-0 00000-0 0 9997 2 25867 39.5358 161.4264 8951386 290.8613 0.3621 0.37808724 14282 ...Continue Reading

[TLELIST] Current TLEs

April 2nd 2024 PST

HST 1 20580U 90037B 24092.55129959 .00006412 00000-0 31006-3 0 9992 2 20580 28.4674 138.1349 0002174 273.6627 86.3717 15.16572141665387 ISS (ZARYA) 1 25544U 98067A 24093.37664660 .00016628 00000-0 30019-3 0 9995 2 25544 51.6416 331.2550 0004616 29.4526 135.6926 15.49854010446787 CXO 1 25867U 99040B 24093.82349510 .00001213 00000-0 00000-0 0 9997 2 25867 39.5358 161.4264 8951386 290.8613 0.3621 0.37808724 14282 ...Continue Reading

[TLELIST] Current TLEs

April 1st 2024 PST

HST 1 20580U 90037B 24091.82742156 .00006507 00000-0 31485-3 0 9997 2 20580 28.4672 142.9762 0002186 264.2249 95.8094 15.16563416665272 ISS (ZARYA) 1 25544U 98067A 24092.21249719 .00020309 00000-0 36514-3 0 9998 2 25544 51.6417 337.0228 0004621 25.8480 119.7520 15.49819946446602 CXO 1 25867U 99040B 24093.82349510 .00001213 00000-0 00000-0 0 9997 2 25867 39.5358 161.4264 8951386 290.8613 0.3621 0.37808724 14282 ...Continue Reading

[TLELIST] Current TLEs

March 31st 2024 PST

HST 1 20580U 90037B 24091.23515506 .00008878 00000-0 43302-3 0 9993 2 20580 28.4672 146.9376 0002206 257.5290 102.5055 15.16558956665446 ISS (ZARYA) 1 25544U 98067A 24091.40811343 .00044324 00000-0 78509-3 0 9999 2 25544 51.6412 341.0008 0005066 18.1497 316.6204 15.49815133446471 CXO 1 25867U 99040B 24091.17811311 .00001177 00000-0 00000-0 0 9995 2 25867 39.4890 161.6714 8952964 290.6875 0.1452 0.37811075 14277 ...Continue Reading

[TLELIST] Current TLEs

March 30th 2024 PST

HST 1 20580U 90037B 24089.85318736 .00006898 00000-0 33460-3 0 9998 2 20580 28.4674 156.1802 0002261 240.2934 119.7433 15.16538034664972 ISS (ZARYA) 1 25544U 98067A 24090.26939992 .00025183 00000-0 45175-3 0 9998 2 25544 51.6413 346.6442 0004779 23.0617 74.4394 15.49744166446302 CXO 1 25867U 99040B 24091.17811311 .00001177 00000-0 00000-0 0 9995 2 25867 39.4890 161.6714 8952964 290.6875 0.1452 0.37811075 14277 ...Continue Reading

[TLELIST] Current TLEs

March 30th 2024 PST

HST 1 20580U 90037B 24089.85318736 .00006898 00000-0 33460-3 0 9998 2 20580 28.4674 156.1802 0002261 240.2934 119.7433 15.16538034664972 ISS (ZARYA) 1 25544U 98067A 24090.26939992 .00025183 00000-0 45175-3 0 9998 2 25544 51.6413 346.6442 0004779 23.0617 74.4394 15.49744166446302 CXO 1 25867U 99040B 24091.17811311 .00001177 00000-0 00000-0 0 9995 2 25867 39.4890 161.6714 8952964 290.6875 0.1452 0.37811075 14277 ...Continue Reading

[TLELIST] Current TLEs

March 29th 2024 PST

HST 1 20580U 90037B 24088.86605780 .00006750 00000-0 32734-3 0 9996 2 20580 28.4676 162.7818 0002301 228.4694 131.5700 15.16523942664825 ISS (ZARYA) 1 25544U 98067A 24089.24577390 .00025666 00000-0 46105-3 0 9994 2 25544 51.6418 351.7145 0004831 19.3054 123.6312 15.49693168446140 CXO 1 25867U 99040B 24088.53609835 .00001135 00000-0 00000+0 0 9990 2 25867 39.4629 161.8807 8955396 290.5377 0.3961 0.37815734 25411 ...Continue Reading

[TLELIST] Current TLEs

March 28th 2024 PST

HST 1 20580U 90037B 24087.54987135 .00007109 00000-0 34541-3 0 9994 2 20580 28.4679 171.5837 0002376 212.0932 147.9516 15.16505113664627 ISS (ZARYA) 1 25544U 98067A 24088.27898818 .00028384 00000-0 50977-3 0 9999 2 25544 51.6421 356.5011 0004656 14.4498 131.4135 15.49641988445997 CXO 1 25867U 99040B 24088.53609835 .00001135 00000-0 00000+0 0 9990 2 25867 39.4629 161.8807 8955396 290.5377 0.3961 0.37815734 25411 ...Continue Reading

[TLELIST] Current TLEs

March 27th 2024 PST

HST 1 20580U 90037B 24086.89177190 .00008245 00000-0 40224-3 0 9990 2 20580 28.4680 175.9841 0002402 205.0006 155.0470 15.16496108664527 ISS (ZARYA) 1 25544U 98067A 24087.24517777 .00033256 00000-0 59668-3 0 9997 2 25544 51.6416 1.6180 0004719 9.6414 125.2000 15.49587019445839 CXO 1 25867U 99040B 24088.53609835 .00001135 00000-0 00000+0 0 9990 2 25867 39.4629 161.8807 8955396 290.5377 0.3961 0.37815734 25411 ...Continue Reading
  • This mailing list is a public mailing list - anyone may join or leave, at any time.
  • This mailing list is announce-only.

International Space Station (ISS) / Hubble Space Telescope (HST) / Chandra X-Ray Observatory Orbital Data via EMAIL

Privacy Policy:

Private list